This is the latest recevied weather packets stored in our database for station/object KF0GNS-15. If no packets are shown the sender has not sent any weather packets the latest 1 day(s).
| Time | Temp. | Humidity | Pressure | Rain* | Wind** | Luminosity | Snow |
|---|---|---|---|---|---|---|---|
| 1778030326 | 11.11° C | 64% | 1013.7 hPa | 0 mm | 0 m/s | - | - |
| 1778029377 | 11.67° C | 65% | 1013.6 hPa | 0 mm | 0 m/s | - | - |
| 1778028428 | 11.67° C | 65% | 1013.5 hPa | 0 mm | 0 m/s | - | - |
| 1778026530 | 12.22° C | 77% | 1013.3 hPa | 0 mm | 0 m/s | - | - |
| 1778025581 | 12.22° C | 79% | 1013.2 hPa | 0 mm | 0 m/s | - | - |
| 1778024631 | 12.22° C | 78% | 1013 hPa | 0 mm | 0 m/s | - | - |
| 1778023683 | 12.22° C | 76% | 1013 hPa | 0 mm | 0 m/s | - | - |
| 1778022733 | 12.22° C | 75% | 1013.1 hPa | 0 mm | 0 m/s | - | - |
| 1778021785 | 12.78° C | 75% | 1013.1 hPa | 0 mm | 0 m/s | - | - |
| 1778020837 | 12.22° C | 73% | 1012.9 hPa | 0 mm | 0 m/s | - | - |
| 1778019888 | 12.22° C | 74% | 1013 hPa | 0 mm | 0 m/s | - | - |
| 1778017989 | 12.22° C | 74% | 1013 hPa | 0 mm | 0 m/s | - | - |
| 1778017040 | 12.22° C | 75% | 1013.2 hPa | 0 mm | 0 m/s | - | - |
| 1778016094 | 12.22° C | 74% | 1013.1 hPa | 0 mm | 0 m/s | - | - |
| 1778014194 | 12.22° C | 73% | 1013.3 hPa | 0 mm | 0 m/s | - | - |
| 1778013244 | 12.22° C | 72% | 1013.6 hPa | 0 mm | 0.89 m/s, 290° | - | - |
| 1778010402 | 11.11° C | 79% | 1013.7 hPa | 0 mm | 0 m/s | - | - |
| 1778009449 | 10.56° C | 82% | 1013.7 hPa | 0 mm | 0 m/s | - | - |
| 1778008499 | 10.56° C | 84% | 1013.6 hPa | 0 mm | 0.45 m/s, 66° | - | - |
| 1778007551 | 10.56° C | 86% | 1013.7 hPa | 0 mm | 0 m/s | - | - |
| 1778006603 | 10° C | 84% | 1013.6 hPa | 0 mm | 0 m/s | - | - |
| 1778005652 | 10° C | 87% | 1013.8 hPa | 0.25 mm | 0 m/s | - | - |
| 1778004706 | 9.44° C | 86% | 1013.7 hPa | 0.25 mm | 1.79 m/s, 159° | - | - |
| 1778003754 | 9.44° C | 86% | 1013.8 hPa | 0.25 mm | 0.45 m/s, 117° | - | - |
| 1778002806 | 9.44° C | 91% | 1014 hPa | 0.25 mm | 0.45 m/s, 120° | - | - |
* Rain latest hour (hover to see other rain measurements)
** Current wind speed in m/s (hover to see current wind gust speed)